Marshfield, WI

10:12 AM CDT on September 23, 2017 (GMT -0500)
Marshfield Municipal

Weather History for KMFI - August, 2012

Change the Weather History Date:

Thursday, August 16, 2012

  Actual Average Record
Temperature  
Mean Temperature 64 °F -  
Max Temperature 70 °F 80 °F 102 °F (1988)
Min Temperature 57 °F 56 °F 37 °F (1979)
Degree Days  
Heating Degree Days 2    
Growing Degree Days 14 (Base 50)    
Moisture  
Dew Point 56 °F    
Average Humidity 74    
Maximum Humidity 90    
Minimum Humidity 55    
Precipitation  
Precipitation 0.01 in - - ()
Sea Level Pressure  
Sea Level Pressure 29.81 in    
Wind  
Wind Speed 11 mph (WNW)    
Max Wind Speed 21 mph    
Max Gust Speed 29 mph    
Visibility 10 miles    
Events Rain    
Averages and records for this station are not official NWS values.
T = Trace of Precipitation, MM = Missing Value Source: NWS Daily Summary

Daily Weather History Graph

Daily Weather History Graph

Search for Another Location

Airport or City:

Trip Planner

Search our weather history database for the weather conditions in past years. The results will help you decide how hot, cold, wet, or windy it might be!

Date:

Astronomy

Aug. 16, 2012 Rise Set
Actual Time 6:05 AM CDT 8:03 PM CDT
Civil Twilight 5:33 AM CDT 8:35 PM CDT
Nautical Twilight 4:54 AM CDT 9:13 PM CDT
Astronomical Twilight 4:12 AM CDT 9:56 PM CDT
Moon 5:03 AM CDT (8/16) 7:11 PM CDT (8/16)
Length of Visible Light 15h 01m
Length of Day
13h 58m
Waning Crescent, 1% of the Moon is Illuminated
Aug 16
Waning Crescent
Aug 17
New
Aug 24
First Quarter
Aug 31
Full
Sep 8
Last Quarter

Hourly Weather History & Observations

Time (CDT) Temp. Dew Point Humidity Pressure Visibility Wind Dir Wind Speed Gust Speed Precip Events Conditions
12:54 AM 66.9 °F 59.0 °F 76% 29.76 in 10.0 mi South 12.7 mph - 0.00 in Rain Light Rain
1:54 AM 66.9 °F 60.1 °F 79% 29.73 in 10.0 mi West 11.5 mph - 0.00 in Rain Light Rain
2:54 AM 66.0 °F 61.0 °F 84% 29.71 in 10.0 mi South 3.5 mph - 0.00 in   Scattered Clouds
3:54 AM 64.9 °F 62.1 °F 90% 29.72 in 10.0 mi West 3.5 mph - 0.01 in   Overcast
4:54 AM 66.0 °F 63.0 °F 90% 29.72 in 10.0 mi South 4.6 mph - N/A   Overcast
5:37 AM 66.2 °F 62.6 °F 88% 29.74 in 10.0 mi SSW 8.1 mph - N/A   Overcast
5:54 AM 66.0 °F 63.0 °F 90% 29.71 in 10.0 mi West 3.5 mph - N/A   Overcast
6:14 AM 66.2 °F 62.6 °F 88% 29.73 in 10.0 mi Calm Calm - N/A   Overcast
6:54 AM 66.0 °F 63.0 °F 90% 29.71 in 8.0 mi WSW 3.5 mph - N/A   Overcast
7:54 AM 66.9 °F 63.0 °F 87% 29.72 in 10.0 mi NW 11.5 mph - N/A   Overcast
8:54 AM 66.0 °F 61.0 °F 84% 29.76 in 10.0 mi NW 13.8 mph 21.9 mph N/A   Overcast
9:54 AM 64.0 °F 57.0 °F 78% 29.78 in 10.0 mi NNW 19.6 mph 24.2 mph N/A   Overcast
10:54 AM 66.0 °F 55.9 °F 70% 29.79 in 10.0 mi NW 19.6 mph 26.5 mph N/A   Mostly Cloudy
11:43 AM 68.0 °F 53.6 °F 60% 29.81 in 10.0 mi NW 19.6 mph 27.6 mph N/A   Overcast
11:54 AM 66.9 °F 54.0 °F 63% 29.81 in 10.0 mi WNW 19.6 mph 28.8 mph N/A   Overcast
12:54 PM 70.0 °F 53.1 °F 55% 29.81 in 10.0 mi WNW 19.6 mph 28.8 mph N/A   Mostly Cloudy
1:54 PM 69.1 °F 54.0 °F 58% 29.83 in 10.0 mi WNW 18.4 mph 23.0 mph N/A   Overcast
2:54 PM 68.0 °F 53.1 °F 59% 29.83 in 10.0 mi WNW 16.1 mph 25.3 mph N/A   Overcast
3:54 PM 69.1 °F 54.0 °F 58% 29.84 in 10.0 mi NW 17.3 mph 23.0 mph N/A   Overcast
4:54 PM 66.0 °F 53.1 °F 63% 29.85 in 10.0 mi NW 20.7 mph 27.6 mph N/A   Overcast
5:54 PM 64.9 °F 52.0 °F 63% 29.85 in 10.0 mi WNW 16.1 mph 27.6 mph N/A   Overcast
6:54 PM 64.0 °F 51.1 °F 63% 29.86 in 10.0 mi NW 12.7 mph 23.0 mph N/A   Mostly Cloudy
7:54 PM 61.0 °F 50.0 °F 67% 29.88 in 10.0 mi WNW 11.5 mph 21.9 mph N/A   Scattered Clouds
8:54 PM 57.9 °F 50.0 °F 75% 29.92 in 10.0 mi West 4.6 mph - N/A   Scattered Clouds
9:54 PM 57.9 °F 51.1 °F 78% 29.96 in 10.0 mi West 5.8 mph - N/A   Overcast
10:54 PM 57.9 °F 51.1 °F 78% 29.97 in 10.0 mi WNW 9.2 mph - N/A   Overcast
11:54 PM 57.9 °F 50.0 °F 75% 29.97 in 10.0 mi WNW 10.4 mph - N/A   Overcast